CAPE
1045 952 1439 1851 421 593 451 303 614 0 99 157 1 63 260 670 380 21 182 322 522 522 348 554 799 708 843 1092 944 675 457 556 758 744 594 498 429 564 655 819 949 1210 1464 1537 1251 1105 1029 1040 1332
1105 1276 923 523 257 383 419 476 316 141 673 93 154 581 733 799 554 245 197 472 500 287 110 421 1280 633 618 725 728 477 344 437 659 997 386 425 476 492 657 988 1365 1473 1682 1241 905 1109 1142 1433 1345
1159 400 592 540 131 457 471 564 813 561 289 81 446 670 744 870 440 75 420 558 442 245 60 714 585 474 558 631 514 447 337 345 529 624 397 347 473 703 955 1165 1517 1736 1771 1834 1024 1217 1491 1413 1614
937 834 598 558 264 158 447 847 595 659 477 216 499 622 442 675 167 362 576 626 333 136 69 824 632 492 635 449 455 359 267 266 460 456 454 415 616 919 1346 1771 1940 1903 1760 1879 1520 1681 1716 1619 1816
414 742 681 377 626 545 756 756 705 701 531 355 262 289 403 424 754 586 680 599 219 141 187 554 708 598 553 526 470 397 326 317 452 514 596 738 1122 1642 2007 2029 2113 2382 1979 1737 1943 1760 1638 1634 1670
513 307 826 798 931 961 1036 819 949 648 519 378 233 184 298 747 738 520 585 496 197 29 381 419 697 677 684 660 549 520 373 316 532 733 935 1324 1747 2121 2520 2773 2921 2942 1805 2059 1948 1948 1792 1668 1562
397 394 438 541 1075 1044 1135 930 889 551 479 331 201 312 527 1559 559 540 529 415 77 105 143 565 733 724 963 865 806 734 357 325 591 1265 1549 1949 1868 2006 2047 2224 2851 3099 2057 2190 2061 2131 1868 1597 1650
128 293 361 342 776 1074 1149 837 623 484 441 252 371 443 455 1029 565 514 510 193 39 563 85 653 1241 1400 1346 1167 1067 765 280 510 963 1648 1718 1419 1078 1385 1600 2226 2534 2985 2256 2328 2249 1722 1493 1383 1235
493 475 351 510 662 1095 920 540 583 509 247 395 451 425 461 761 529 407 268 115 187 753 718 386 927 1733 1646 1667 1360 577 497 1021 976 1132 833 1151 1175 1459 1318 1824 2199 2345 2400 2501 2165 1741 1517 1363 1178
407 580 469 294 244 554 1021 645 735 459 451 531 698 659 605 594 435 275 44 14 10 162 604 364 650 1729 1341 1218 1572 868 684 996 1295 932 1325 1412 1291 1127 863 1295 1576 1720 2036 1873 1215 1099 870 721 847
255 410 294 215 251 565 1149 1102 835 583 589 655 787 768 625 507 332 219 31 2 0 0 5 300 975 1830 1412 1597 853 304 773 997 862 617 1550 1162 1110 932 872 1120 1173 1215 1495 1335 715 479 623 903 713
392 283 289 297 340 550 1254 1227 895 690 890 659 767 774 687 453 262 170 78 0 0 0 130 412 1174 1607 1563 1341 652 348 916 1098 385 752 1494 1205 1001 992 1364 1283 1361 1449 1601 1567 694 697 896 863 798
339 247 212 295 248 364 1334 1300 1057 775 791 745 751 781 761 677 363 246 187 20 17 0 184 810 1321 1645 1644 1383 365 401 1188 811 300 721 1265 985 1137 1272 1481 1585 1584 1573 1554 1477 859 703 846 754 570
552 281 275 268 349 935 1037 1171 968 968 945 901 873 888 810 589 461 500 583 412 364 220 572 1075 1508 1444 1472 1210 574 389 1378 600 274 492 1250 1007 962 1409 1295 1782 1640 1614 1538 1579 1310 749 779 529 343
406 277 250 271 372 303 861 996 786 1027 1171 1059 968 960 885 852 751 906 903 585 497 461 667 1032 1378 1262 1374 1163 466 237 1143 505 159 375 749 967 700 1505 1697 1807 1584 1685 1753 1625 1359 885 838 604 393
287 275 410 231 299 350 357 721 532 1132 1255 1179 1118 1000 775 982 978 1023 1052 1048 917 838 896 1085 1116 1170 1279 1127 511 304 1035 859 102 146 271 788 888 1290 1698 1930 1582 1639 1848 1713 1304 900 793 718 474
435 351 255 281 252 346 405 725 715 1069 1152 1331 1308 1218 1170 1108 1044 865 1089 1121 1217 1223 1154 1181 1260 1230 1292 1473 1067 654 468 543 205 83 92 236 1081 1218 1487 1481 1534 1479 1650 1591 1536 1223 1150 782 627
347 297 277 372 349 287 409 590 546 1081 1111 1240 1158 1304 1282 1244 1234 1171 1040 1064 1272 1147 1222 1253 1301 1468 1516 1539 1398 873 631 79 42 16 12 161 898 1616 1368 1504 1600 1269 1425 1522 1849 1902 1547 873 1203
322 308 404 500 530 380 439 556 576 1173 1093 1107 1153 1239 1265 1269 1272 1287 1213 981 1238 1288 1318 1501 1673 1731 1687 1578 1267 940 838 598 749 296 96 310 898 1707 1444 1259 1545 1115 1463 1547 1521 1698 1599 1089 734
347 427 493 572 543 453 679 735 227 682 1245 1217 1189 1034 1026 1035 1066 1233 1262 1133 816 1291 1348 1618 1757 1830 1832 1594 1324 908 935 1081 1085 1106 750 469 1131 1745 1616 1395 1436 1520 1397 1618 1546 1389 1435 931 619
441 369 377 339 363 422 278 356 67 40 204 647 1204 1195 1072 983 1060 1117 1140 1025 569 897 1306 1562 1756 1793 1794 1662 1439 1170 1150 1244 1300 1235 683 586 1454 1709 1804 1516 1719 1734 1414 1954 1533 1308 1276 1025 643
421 395 301 349 264 467 230 185 210 42 235 582 1136 1320 1252 1222 1208 1212 1223 1094 724 854 702 1113 1477 1560 1634 1676 1436 1321 1180 1413 1541 1520 995 920 1380 1789 1810 1690 1696 1750 1275 1245 1533 1173 1051 1141 858
394 268 183 209 355 319 184 278 352 115 255 169 173 127 88 78 756 1240 1275 1229 1109 1031 1000 635 1187 1389 1510 1428 1810 1531 1404 1402 1688 1585 1499 1362 1285 1460 1536 1813 1678 1860 1519 1195 1118 889 1143 921 862
275 206 148 347 417 295 92 158 289 279 225 182 101 138 104 203 204 605 1132 1276 1295 1184 1091 607 936 1230 1406 1442 1580 1684 1597 1543 1610 1686 1623 1515 1058 1075 1561 1759 1742 1650 1406 1709 1251 1078 1046 1077 954
305 166 58 439 443 248 127 320 235 177 173 196 172 146 164 263 330 436 1053 1291 1399 1345 1507 1242 1045 1343 1413 1541 1628 1645 1662 1679 1799 2017 1669 1647 1506 1405 1395 1606 1557 1329 1644 1590 1701 1514 1370 1230 1119
260 153 60 261 211 46 155 341 145 220 171 167 106 136 221 359 140 493 1042 1322 1474 1495 1530 1433 1052 1489 1578 1655 1748 1782 1736 1644 1719 1894 1756 1642 1530 1556 1615 1682 1553 1562 1450 1393 1619 1314 1265 1220 1250
218 124 0 66 176 117 71 297 274 161 132 117 109 217 247 338 247 61 795 1393 1542 1605 1648 1770 1589 1691 1690 1706 1871 1837 1801 1798 1780 1934 1919 1792 1816 1576 1809 1666 1655 1625 1541 1519 1444 1219 1262 1251 1311
194 105 6 10 148 135 164 408 302 359 181 177 87 175 213 259 237 218 287 1120 1503 1628 1748 1826 1923 1924 1903 1822 1859 1862 1833 1895 1915 1976 1972 1881 1795 1885 1763 1784 1700 1763 1725 1694 1669 1280 1347 1444 1257
10 45 73 15 6 80 19 32 541 741 139 191 123 89 113 126 170 364 467 861 1395 1560 1717 1913 1966 1964 1956 1934 2010 1993 1944 1931 2010 1961 1998 2050 1935 1942 2059 2075 2021 1911 1777 1712 1708 1529 1473 1482 1402
30 32 93 0 145 19 67 47 0 112 155 121 100 134 886 592 510 780 948 999 1441 1719 1785 1903 2013 1976 1998 2057 2224 2197 2186 2137 2017 2082 2063 2060 2036 1985 2036 2030 1995 1834 1674 1702 1657 1513 1222 1519 1364
CIN
-158 -178 -135 -82 -101 -29 -31 -23 -44 -0 -79 -70 -2 -28 -20 -33 -33 -31 -122 -71 -58 -55 -68 -17 -7 -12 -4 -2 -5 -20 -32 -17 -9 -7 -13 -21 -25 -30 -25 -21 -15 -10 -5 -4 -10 -9 -7 -5 -3
-185 -155 -213 -231 -75 -21 -26 -61 -39 -39 -33 -58 -40 -22 -18 -29 -65 -123 -111 -41 -35 -68 -94 -36 -0 -12 -17 -17 -16 -31 -34 -28 -10 -1 -33 -43 -48 -48 -34 -21 -7 -9 -6 -7 -8 -4 -6 -1 -2
-234 -333 -209 -161 -99 -35 -20 -57 -37 -62 -77 -24 -63 -45 -34 -29 -82 -133 -64 -38 -35 -62 -85 -9 -15 -24 -18 -17 -16 -26 -37 -40 -18 -10 -33 -46 -50 -40 -34 -24 -13 -7 -4 -2 -4 -2 -2 -1 -0
-270 -288 -268 -91 -32 -49 -48 -53 -54 -54 -57 -91 -74 -57 -85 -56 -123 -93 -68 -52 -62 -89 -96 -9 -20 -27 -19 -38 -33 -46 -39 -31 -28 -33 -40 -41 -38 -31 -24 -14 -6 -5 -4 -2 -8 -1 -0 -0 -0
-367 -248 -86 -35 -24 -41 -42 -48 -38 -29 -46 -71 -95 -132 -104 -94 -34 -63 -40 -42 -79 -88 -73 -27 -22 -28 -26 -26 -27 -39 -33 -34 -37 -38 -36 -33 -30 -19 -7 -12 -8 -5 -4 -4 -2 -0 -0 -0 -0
-231 -137 -40 -15 -15 -31 -27 -31 -23 -39 -56 -97 -133 -170 -130 -39 -34 -63 -50 -56 -90 -149 -73 -60 -30 -26 -23 -20 -22 -27 -36 -45 -40 -32 -30 -17 -20 -13 -7 -5 -4 -3 -7 -4 -0 -0 -0 -0 -0
-165 -120 -77 -62 -15 -16 -32 -47 -31 -49 -68 -117 -175 -134 -100 -2 -61 -55 -51 -63 -139 -113 -101 -49 -31 -28 -14 -13 -9 -15 -48 -49 -41 -21 -20 -11 -20 -24 -18 -14 -5 -2 -10 -4 -0 -0 -0 -0 -0
-227 -131 -67 -46 -21 -17 -39 -47 -65 -51 -81 -153 -111 -90 -143 -67 -108 -70 -59 -112 -181 -52 -135 -41 -5 -0 -1 -3 -2 -19 -62 -48 -33 -24 -35 -36 -54 -56 -44 -10 -10 -0 -4 -6 -0 -0 -0 -0 -0
-284 -36 -24 -29 -32 -30 -60 -62 -77 -60 -122 -124 -124 -153 -162 -127 -144 -111 -116 -157 -133 -29 -38 -83 -32 -0 -0 -0 -0 -35 -55 -37 -51 -40 -71 -39 -25 -27 -18 -38 -18 -7 -2 -1 -0 -0 -0 -0 -0
-180 -60 -34 -59 -53 -30 -51 -50 -59 -71 -73 -120 -134 -157 -159 -140 -171 -174 -219 -231 -244 -156 -75 -104 -63 -0 -8 -1 -0 -29 -42 -30 -30 -52 -43 -34 -37 -41 -35 -43 -41 -28 -9 -8 -16 -11 -14 -12 -0
-196 -62 -95 -62 -66 -57 -44 -59 -66 -63 -60 -79 -110 -162 -165 -161 -173 -187 -209 -244 -0 -0 -160 -140 -47 -0 -6 -0 -25 -65 -30 -27 -32 -70 -35 -42 -30 -27 -21 -24 -26 -20 -19 -1 -15 -25 -14 -4 -5
-77 -120 -119 -63 -66 -53 -41 -65 -74 -79 -56 -82 -154 -174 -180 -201 -207 -196 -202 -0 -0 -0 -203 -121 -35 -7 -8 -12 -55 -68 -25 -24 -44 -45 -32 -40 -20 -16 -20 -17 -22 -26 -12 -11 -21 -20 -3 -3 -3
-116 -106 -98 -93 -40 -77 -59 -65 -76 -109 -168 -175 -207 -167 -143 -152 -173 -62 -69 -41 -30 -0 -166 -74 -35 -12 -7 -18 -93 -69 -16 -30 -42 -40 -30 -35 -19 -22 -14 -14 -17 -16 -9 -3 -21 -18 -8 -2 -1
-119 -100 -73 -30 -27 -81 -57 -85 -97 -188 -225 -222 -218 -171 -142 -135 -124 -111 -102 -33 -32 -36 -86 -34 -12 -17 -15 -31 -89 -81 -9 -45 -39 -25 -24 -40 -30 -23 -18 -13 -13 -13 -9 -6 -6 -16 -5 -5 -1
-112 -60 -46 -29 -29 -44 -78 -80 -82 -198 -239 -225 -228 -181 -145 -118 -115 -76 -60 -73 -25 -87 -64 -42 -18 -17 -15 -26 -94 -133 -14 -48 -44 -18 -51 -43 -47 -27 -28 -15 -13 -11 -11 -11 -6 -13 -5 -4 -0
-86 -24 -29 -42 -69 -28 -40 -18 -125 -222 -221 -264 -247 -220 -243 -170 -152 -123 -90 -61 -55 -58 -66 -39 -32 -32 -20 -22 -70 -95 -26 -27 -45 -47 -22 -40 -46 -40 -23 -16 -13 -22 -7 -4 -3 -5 -3 -0 -0
-70 -41 -43 -50 -42 -66 -67 -36 -141 -233 -223 -213 -241 -220 -204 -188 -148 -175 -136 -133 -63 -61 -69 -59 -37 -31 -27 -12 -33 -53 -67 -48 -96 -72 -108 -79 -31 -27 -19 -16 -18 -23 -14 -3 -1 -1 -0 -0 -0
-41 -41 -53 -45 -64 -69 -65 -48 -125 -217 -232 -202 -240 -189 -200 -169 -153 -168 -175 -142 -73 -79 -78 -67 -47 -27 -22 -7 -14 -37 -54 -138 -149 -60 -142 -105 -23 -17 -23 -19 -21 -19 -15 -8 -4 -7 -0 -0 -0
-18 -4 -6 -16 -73 -36 -67 -64 -76 -162 -228 -226 -212 -186 -179 -180 -151 -165 -155 -192 -91 -102 -68 -66 -55 -38 -21 -16 -18 -31 -39 -41 -42 -100 -131 -81 -24 -15 -22 -15 -27 -26 -12 -11 -12 -8 -4 -0 -0
-12 -11 -17 -47 -87 -65 -72 -32 -89 -173 -205 -204 -219 -238 -215 -186 -161 -157 -149 -171 -244 -132 -109 -62 -62 -47 -38 -30 -40 -43 -38 -24 -17 -21 -42 -64 -26 -18 -18 -23 -17 -27 -20 -18 -16 -8 -0 -1 -1
-15 -20 -17 -15 -44 -71 -48 -27 -109 -109 -161 -234 -219 -201 -240 -219 -220 -185 -188 -188 -137 -83 -84 -90 -89 -67 -67 -46 -36 -48 -37 -29 -15 -24 -56 -54 -22 -18 -17 -21 -17 -19 -28 -10 -15 -11 -5 -0 -2
-23 -23 -29 -21 -27 -17 -85 -36 -71 -99 -27 -190 -199 -202 -187 -221 -244 -232 -184 -203 -174 -207 -111 -162 -82 -110 -93 -52 -49 -48 -33 -16 -13 -13 -28 -21 -23 -14 -15 -15 -17 -18 -31 -30 -22 -15 -4 -1 -0
-37 -55 -71 -67 -31 -39 -124 -89 -38 -130 -75 -111 -64 -61 -78 -265 -228 -212 -216 -144 -181 -295 -349 -462 -275 -164 -130 -88 -57 -58 -45 -25 -8 -11 -13 -18 -22 -20 -14 -10 -16 -12 -11 -20 -25 -38 -14 -1 -0
-68 -83 -128 -59 -43 -52 -197 -138 -69 -107 -154 -187 -219 -144 -240 -285 -78 -262 -226 -176 -206 -334 -312 -177 -337 -246 -189 -124 -95 -74 -64 -41 -13 -9 -6 -5 -13 -12 -18 -11 -10 -8 -9 -6 -9 -18 -14 -6 -3
-69 -110 -194 -31 -33 -71 -242 -133 -82 -172 -164 -241 -282 -270 -94 -84 -64 -65 -288 -255 -250 -335 -241 -305 -353 -254 -223 -158 -128 -116 -98 -69 -29 -11 -7 -3 -4 -5 -10 -19 -17 -11 -13 -4 -1 -1 -0 -9 -1
-78 -120 -176 -79 -87 -160 -290 -74 -118 -217 -245 -291 -333 -135 -97 -30 -83 -232 -260 -271 -282 -312 -239 -233 -365 -253 -242 -211 -170 -138 -111 -93 -58 -22 -26 -13 -3 -3 -6 -10 -12 -14 -17 -10 -9 -0 -0 -0 -0
-95 -136 -22 -190 -119 -148 -193 -105 -150 -253 -298 -285 -183 -126 -64 -28 -16 -99 -307 -293 -308 -298 -289 -231 -251 -262 -267 -245 -199 -180 -145 -125 -100 -68 -45 -33 -10 -9 -11 -10 -9 -9 -10 -10 -5 -0 -0 -0 -0
-134 -143 -129 -157 -126 -119 -145 -71 -73 -80 -171 -218 -285 -124 -80 -55 -19 -48 -46 -297 -307 -289 -264 -266 -219 -233 -227 -197 -212 -182 -169 -149 -119 -85 -76 -62 -46 -24 -17 -10 -10 -7 -4 -2 -1 -0 -15 -0 -0
-226 -182 -143 -72 -233 -149 -161 -37 -38 -31 -231 -195 -296 -157 -133 -256 -55 -40 -51 -287 -296 -298 -282 -267 -245 -228 -230 -235 -222 -198 -167 -152 -140 -115 -103 -75 -60 -41 -16 -8 -4 -5 -5 -1 -0 -0 -0 -0 -0
-200 -186 -137 -69 -140 -234 -137 -122 -0 -257 -233 -341 -182 -95 -258 -343 -291 -256 -312 -335 -291 -275 -259 -254 -246 -229 -231 -239 -226 -208 -183 -165 -143 -129 -123 -94 -73 -54 -25 -11 -6 -5 -6 -1 -0 -0 -2 -0 -0
Wind_Speed
19 21 19 19 18 17 15 17 22 nan nan 19 nan nan 14 9 11 nan 9 10 15 14 12 10 9 7 7 7 8 10 10 10 12 13 12 14 15 16 17 18 19 21 22 22 21 18 20 20 19
24 20 23 21 19 16 16 19 17 19 16 nan 16 13 13 11 11 9 13 16 17 15 12 10 6 8 9 9 9 9 11 12 13 14 13 14 16 17 18 19 19 21 21 21 21 21 18 18 16
19 19 17 14 15 16 14 17 12 10 11 nan 11 10 14 13 11 nan 9 18 16 14 nan 12 9 6 8 8 9 9 11 12 13 14 14 14 16 17 18 18 20 19 20 19 18 14 13 16 14
15 12 12 11 11 13 13 10 8 7 6 9 7 5 9 10 17 13 17 18 16 16 nan 16 15 12 11 12 9 10 11 12 13 13 13 14 16 18 19 19 23 24 23 18 11 9 10 8 5
12 12 8 7 11 11 8 8 8 6 6 5 8 5 7 11 11 16 18 17 16 14 16 18 18 15 11 12 11 9 10 10 12 12 12 14 16 17 20 20 23 22 19 13 7 7 7 6 6
11 12 10 7 8 8 4 4 7 5 4 5 3 6 6 10 15 17 16 17 14 nan 12 16 20 17 15 12 11 11 10 8 8 9 12 15 16 15 14 15 15 11 10 7 5 6 7 6 5
9 12 9 9 7 5 3 4 4 3 6 6 10 4 5 10 14 15 15 14 nan 14 13 10 14 14 14 13 11 10 9 7 8 10 11 12 11 13 12 12 11 1 7 3 4 5 5 6 6
11 11 9 9 10 8 4 4 2 4 3 8 7 9 11 12 15 15 14 14 nan 14 nan 14 14 12 9 12 10 10 10 8 8 9 11 7 8 14 9 11 6 3 1 1 2 3 5 5 5
11 8 10 8 8 5 1 3 4 5 10 3 8 6 10 19 17 16 15 15 15 14 16 15 15 13 12 12 11 9 7 7 9 8 8 6 7 9 9 4 4 6 0 3 4 2 5 6 6
12 8 9 8 8 7 2 0 4 9 10 7 3 7 16 17 18 18 nan nan nan 18 17 16 17 16 14 14 10 10 9 6 7 7 6 5 5 7 6 5 2 5 5 8 6 5 5 4 8
15 9 7 8 10 6 4 4 7 8 15 13 13 18 18 17 17 17 nan nan nan nan nan 16 16 16 17 16 15 15 12 8 3 6 7 4 4 6 3 8 7 4 3 2 2 1 2 1 4
17 13 11 12 8 6 8 5 6 10 10 12 18 23 21 19 18 18 nan nan nan nan 17 16 16 14 15 13 14 13 14 11 9 6 8 6 3 4 5 4 4 5 3 2 1 2 2 4 1
14 19 16 14 14 8 2 10 9 11 2 11 20 23 21 19 21 19 16 nan nan nan 16 16 15 12 11 11 11 12 13 12 9 4 8 9 5 4 4 3 2 4 4 3 0 3 3 3 4
20 16 12 11 8 6 8 10 10 7 8 14 22 25 24 23 24 20 18 17 16 15 15 15 16 13 11 10 10 11 12 12 10 7 3 13 8 6 4 2 2 2 4 2 1 3 3 4 5
20 13 15 16 11 9 6 10 13 5 10 15 21 28 22 25 25 26 23 22 20 16 16 17 16 14 12 11 9 10 10 11 10 9 6 9 8 6 5 2 2 2 3 2 4 6 4 4 4
21 17 16 14 12 9 11 12 9 12 14 15 20 18 26 25 31 29 29 26 22 19 18 16 15 15 14 11 9 8 9 9 9 7 6 4 2 7 4 2 2 1 4 3 3 6 6 5 4
19 17 17 15 13 7 9 9 5 16 18 19 19 19 22 23 24 24 35 27 26 24 21 20 19 18 17 13 9 11 10 8 8 nan nan 3 4 5 5 1 3 2 2 3 5 6 8 7 6
18 19 19 15 10 9 8 15 7 16 19 19 20 20 21 20 25 28 36 35 25 23 24 20 17 18 16 12 12 11 10 nan nan nan nan 7 6 2 2 3 5 4 3 2 3 5 7 7 9
9 11 14 12 10 8 6 10 4 8 15 18 22 22 26 28 28 28 24 24 30 26 25 25 21 19 14 12 13 13 13 11 9 7 nan 5 4 2 4 6 5 4 4 4 4 4 8 4 9
8 10 10 10 6 11 8 14 15 5 8 17 22 25 25 22 26 30 29 26 24 25 27 24 22 19 13 11 12 10 10 9 9 7 8 8 3 6 8 8 5 3 5 7 7 6 4 6 3
10 9 8 9 8 3 16 10 nan nan 7 4 13 18 19 25 30 33 34 32 26 18 8 16 21 21 17 15 10 10 9 7 7 8 8 9 7 7 6 8 8 5 6 8 7 7 4 4 3
5 5 7 3 3 7 7 11 11 nan 17 8 5 8 10 21 25 35 34 31 24 34 14 20 21 24 21 19 14 15 13 12 10 8 8 9 10 9 7 7 9 9 6 13 8 9 4 2 3
9 8 7 7 12 7 8 1 9 14 17 14 8 9 nan nan 19 28 30 26 28 33 32 22 24 24 24 23 17 13 14 11 9 8 9 9 10 10 9 8 9 6 8 10 11 10 4 3 0
9 7 9 11 10 12 nan 4 5 8 12 10 12 16 14 7 14 23 28 31 31 32 27 17 20 23 24 23 20 16 15 14 11 11 9 9 9 11 10 9 7 4 4 7 8 5 4 4 2
10 8 nan 11 12 12 16 9 10 6 3 8 14 11 14 15 16 14 21 30 34 37 29 23 20 30 26 24 20 20 22 20 18 15 12 10 8 8 12 10 9 5 3 3 6 8 6 4 5
17 14 nan 12 14 nan 17 14 14 14 8 4 5 5 6 14 13 13 20 28 34 37 30 26 30 28 26 22 22 21 22 16 16 17 12 9 7 7 8 10 8 7 4 3 5 9 10 11 8
22 17 nan nan 20 16 nan 17 11 15 7 11 10 10 9 8 14 nan 18 24 31 36 35 27 25 22 23 21 19 19 19 21 19 18 16 12 8 4 6 8 9 7 7 6 5 4 5 11 15
20 27 nan nan 22 20 22 19 16 15 22 19 nan 14 18 14 13 11 14 21 25 29 31 25 20 20 19 20 19 18 20 20 20 18 15 14 13 12 8 9 8 6 5 5 6 5 5 7 11
nan nan nan nan nan nan nan nan 21 15 21 22 20 nan 15 19 20 14 12 21 22 23 25 19 17 18 19 19 18 18 18 19 17 18 16 15 13 15 12 8 7 6 6 6 6 4 4 6 5
nan nan nan nan 28 nan nan nan nan 24 23 20 17 16 19 18 23 20 18 23 24 20 20 17 16 17 18 18 17 17 16 15 17 18 17 17 16 15 14 10 8 8 6 5 5 4 5 6 5
Wind_Direction
75 95 105 104 107 128 110 105 103 nan nan 76 nan nan 59 82 79 nan 32 34 2 8 21 27 34 28 40 70 63 75 77 93 104 110 107 103 91 77 72 68 67 77 69 76 84 83 85 90 86
95 95 115 111 114 117 118 101 80 72 89 nan 49 59 60 53 59 11 6 15 8 7 19 25 37 41 40 50 70 81 85 95 102 96 95 90 85 75 79 77 79 81 77 88 88 90 90 93 93
88 106 123 126 120 119 100 91 90 89 59 nan 61 92 78 61 36 nan 27 10 15 16 nan 20 22 35 58 58 80 89 87 90 99 104 97 91 84 77 82 82 90 92 92 90 89 88 88 96 82
100 116 120 137 155 131 127 94 27 57 88 51 39 67 59 73 19 44 12 13 14 20 nan 33 35 39 35 40 50 77 88 92 99 102 103 102 96 83 82 78 84 104 98 94 83 66 83 89 55
116 120 142 144 150 130 115 61 55 87 94 63 81 66 62 56 13 9 11 19 13 23 38 40 42 47 47 49 53 59 75 99 109 107 103 100 96 91 94 90 96 96 84 84 56 60 28 55 53
127 136 162 165 157 148 136 61 92 116 54 53 47 8 42 42 2 2 19 20 19 nan 21 37 39 42 48 47 52 63 80 95 97 101 110 107 100 100 109 114 120 106 72 74 47 32 18 14 18
154 170 173 153 168 147 149 79 126 85 41 49 353 25 23 23 10 3 19 20 nan 12 15 29 30 38 44 45 55 69 78 89 93 108 111 122 132 111 115 117 138 74 96 55 18 17 355 355 350
156 174 166 151 156 175 192 185 229 73 102 335 19 31 24 16 5 0 10 11 nan 16 nan 26 25 36 41 37 48 66 77 78 86 110 123 145 109 115 109 92 136 115 179 327 330 347 328 326 343
149 163 179 164 155 168 320 219 141 82 11 135 124 24 345 350 359 360 9 19 20 23 29 34 37 54 51 51 67 61 77 98 102 101 120 80 84 118 104 131 163 151 142 266 245 319 309 317 342
137 157 176 164 135 123 36 181 51 61 55 119 197 308 340 358 5 8 nan nan nan 29 35 35 37 51 58 59 62 56 69 84 97 114 120 88 100 100 110 113 81 192 207 269 260 298 325 12 43
137 154 151 145 117 131 104 141 89 38 69 64 23 344 351 3 15 18 nan nan nan nan nan 42 42 45 50 60 57 50 53 68 110 144 154 143 95 107 123 100 95 102 158 177 156 32 92 287 50
132 119 128 133 140 128 102 92 99 56 101 71 13 351 347 358 17 23 nan nan nan nan 24 33 44 51 55 54 48 39 48 54 70 149 184 168 137 138 156 118 116 105 113 209 141 55 275 273 303
143 123 130 123 139 96 96 109 112 76 86 9 6 15 17 17 19 25 22 nan nan nan 23 30 39 45 50 42 40 36 28 35 39 60 210 216 186 161 181 144 135 66 56 156 355 336 319 322 309
127 122 140 170 176 134 117 116 105 100 15 7 14 23 34 35 31 25 22 19 15 17 16 20 31 34 35 41 36 29 23 31 33 36 173 190 180 154 186 172 164 42 48 106 1 319 320 328 320
121 142 162 176 156 144 103 97 95 36 11 7 24 31 29 40 36 36 28 23 15 10 9 6 12 20 22 23 30 31 16 20 36 43 98 165 175 165 168 237 214 112 36 358 323 296 312 329 328
151 145 147 159 140 119 109 94 84 15 355 355 17 20 39 42 37 34 36 32 26 22 12 9 8 15 19 19 26 40 25 16 26 46 74 187 183 171 186 218 233 306 56 348 331 326 311 337 348
156 152 144 139 138 111 74 102 59 16 8 6 18 11 24 31 39 59 40 29 24 24 20 11 17 20 22 27 39 46 45 34 27 nan nan 58 142 139 163 113 285 280 312 360 335 332 334 333 327
142 149 148 131 129 103 80 88 73 20 15 13 5 5 13 26 37 44 41 38 41 33 30 26 20 24 16 20 24 42 56 nan nan nan nan 82 157 121 137 238 243 272 288 334 17 333 298 328 329
125 137 130 124 125 111 128 119 125 20 22 21 14 6 12 19 28 30 29 18 22 12 25 22 18 17 9 14 15 26 40 47 41 46 nan 73 161 305 272 289 310 227 268 284 284 246 295 285 307
186 163 172 156 141 115 153 155 178 286 359 17 16 18 13 13 18 20 18 7 12 8 11 21 19 9 13 13 7 20 21 38 52 40 32 38 35 289 265 265 300 293 247 278 286 299 280 265 346
211 232 236 201 182 199 129 145 nan nan 197 7 19 31 13 16 14 9 2 5 332 43 25 51 22 21 12 22 6 1 1 15 33 28 27 16 19 345 303 264 259 286 307 235 264 278 323 306 338
209 292 213 163 264 256 177 162 191 nan 194 205 345 353 13 8 12 5 1 355 343 312 17 11 12 7 17 21 20 19 27 27 32 37 29 23 9 359 337 312 302 261 280 285 262 228 246 302 329
200 205 221 257 319 313 270 166 195 196 209 198 228 255 nan nan 4 10 14 359 347 348 6 1 358 8 15 21 30 20 27 30 29 25 27 20 2 11 6 349 338 292 267 274 307 205 214 272 263
205 261 268 282 305 311 nan 313 306 176 195 205 201 215 214 254 6 4 19 7 355 0 17 359 3 14 14 22 24 22 32 31 20 15 9 2 2 4 18 11 351 341 294 278 272 194 241 251 263
253 252 nan 292 305 287 295 327 292 331 191 195 185 205 214 247 283 330 346 354 359 5 5 351 1 21 13 22 31 35 36 30 21 16 13 13 12 2 9 18 14 350 326 271 230 224 229 254 276
247 247 nan 286 289 nan 292 309 286 321 300 264 281 228 229 219 233 285 331 346 359 2 1 353 3 8 8 18 29 32 31 25 21 17 23 23 33 19 5 5 20 27 1 310 265 232 224 242 240
256 259 nan nan 270 285 nan 296 325 320 307 301 268 251 255 214 200 nan 317 340 350 352 356 353 351 359 1 1 8 14 15 19 16 12 4 7 9 5 0 2 5 9 14 351 313 260 247 233 237
235 260 nan nan 282 288 287 288 305 316 324 313 nan 233 223 220 212 234 308 326 332 340 347 345 349 1 0 2 1 4 8 9 9 2 2 350 344 343 344 351 352 354 354 356 334 311 288 265 244
nan nan nan nan nan nan nan nan 306 331 289 307 274 nan 209 184 189 214 266 304 314 321 331 333 346 1 1 1 6 9 5 7 3 1 353 347 340 341 346 334 331 325 340 338 334 339 310 302 278
nan nan nan nan 277 nan nan nan nan 284 292 279 274 226 229 233 226 217 255 277 286 318 317 335 354 357 355 348 1 12 3 3 4 352 347 336 340 340 334 324 297 295 299 309 308 311 287 321 296